Windsor, Ontario

11:50 PM EDT on September 21, 2017 (GMT -0400)
Windsor

Weather History for CYQG - September, 2012

Change the Weather History Date:

Monday, September 3, 2012

  Actual Average Record
Temperature  
Mean Temperature 76 °F -  
Max Temperature 86 °F 71 °F 95 °F (2008)
Min Temperature 66 °F 53 °F 53 °F (1997)
Cooling Degree Days 11    
Growing Degree Days 26 (Base 50)    
Moisture  
Dew Point 69 °F    
Average Humidity 79    
Maximum Humidity 94    
Minimum Humidity 62    
Precipitation  
Precipitation 0.00 in 0.11 in - ()
Sea Level Pressure  
Sea Level Pressure 29.94 in    
Wind  
Wind Speed 6 mph ()    
Max Wind Speed 12 mph    
Max Gust Speed -    
Visibility 13.5 miles    
Events      
Averages and records for this station are not official NWS values.
T = Trace of Precipitation, MM = Missing Value Source: Averaged Metar Reports

Daily Weather History Graph

Daily Weather History Graph

Search for Another Location

Airport or City:

Trip Planner

Search our weather history database for the weather conditions in past years. The results will help you decide how hot, cold, wet, or windy it might be!

Date:

Astronomy

Sep. 03, 2012 Rise Set
Actual Time 6:59 AM EDT 8:01 PM EDT
Civil Twilight 6:31 AM EDT 8:30 PM EDT
Nautical Twilight 5:56 AM EDT 9:04 PM EDT
Astronomical Twilight 5:20 AM EDT 9:39 PM EDT
Moon 9:14 PM EDT (9/3) 10:11 AM EDT (9/3)
Length of Visible Light 13h 59m
Length of Day
13h 01m
Waning Gibbous, 90% of the Moon is Illuminated
Sep 3
Waning Gibbous
Sep 8
Last Quarter
Sep 15
New
Sep 22
First Quarter
Sep 29
Full

Hourly Weather History & Observations

Time (EDT) Temp. Heat Index Dew Point Humidity Pressure Visibility Wind Dir Wind Speed Gust Speed Precip Events Conditions
12:00 AM 69.8 °F - 64.4 °F 83% 29.98 in 15.0 mi NE 5.8 mph - N/A   Scattered Clouds
1:00 AM 69.8 °F - 64.4 °F 83% 29.97 in 15.0 mi ENE 6.9 mph - N/A   Scattered Clouds
2:00 AM 69 °F - 64 °F 79% 29.97 in 15 mi NE 5.8 mph - -   Clear
2:00 AM 69.8 °F - 64.4 °F 83% 29.97 in 15.0 mi NE 5.8 mph - N/A   Scattered Clouds
3:00 AM 68.0 °F - 64.4 °F 88% 29.96 in 15.0 mi NE 5.8 mph - N/A   Partly Cloudy
4:00 AM 69.8 °F - 64.4 °F 83% 29.96 in 15.0 mi NE 5.8 mph - N/A   Partly Cloudy
5:00 AM 68.0 °F - 64.4 °F 88% 29.96 in 15.0 mi NE 4.6 mph - N/A   Partly Cloudy
6:00 AM 68.0 °F - 64.4 °F 88% 29.95 in 15.0 mi East 3.5 mph - N/A   Clear
7:00 AM 66.2 °F - 64.4 °F 94% 29.95 in 12.0 mi NNE 5.8 mph - N/A   Partly Cloudy
8:00 AM 70 °F - 68 °F 91% 29.96 in 15 mi NE 5.8 mph - -  
8:00 AM 69.8 °F - 68.0 °F 94% 29.96 in 15.0 mi NE 5.8 mph - N/A   Clear
9:00 AM 71.6 °F - 68.0 °F 88% 29.97 in 15.0 mi NE 9.2 mph - N/A   Partly Cloudy
10:00 AM 73.4 °F - 68.0 °F 83% 29.97 in 15.0 mi NE 8.1 mph - N/A   Clear
11:00 AM 77.0 °F - 69.8 °F 78% 29.96 in 15.0 mi ENE 6.9 mph - N/A   Partly Cloudy
12:00 PM 80.6 °F 85.4 °F 73.4 °F 79% 29.95 in 15.0 mi ENE 8.1 mph - N/A   Partly Cloudy
1:00 PM 82.4 °F 88.2 °F 73.4 °F 74% 29.95 in 15.0 mi NE 9.2 mph - N/A   Partly Cloudy
2:00 PM 83 °F - 72 °F 63% 29.94 in 15 mi East 9.2 mph - -   Scattered Clouds
2:00 PM 84.2 °F 90.9 °F 73.4 °F 70% 29.94 in 15.0 mi East 9.2 mph - N/A   Partly Cloudy
3:00 PM 84.2 °F 89.6 °F 71.6 °F 66% 29.93 in 15.0 mi ENE 10.4 mph - N/A   Partly Cloudy
4:00 PM 86.0 °F 91.8 °F 71.6 °F 62% 29.91 in 15.0 mi NE 11.5 mph - N/A   Partly Cloudy
5:00 PM 86.0 °F 91.8 °F 71.6 °F 62% 29.90 in 10.0 mi ENE 10.4 mph - N/A   Partly Cloudy
6:00 PM 86.0 °F 91.8 °F 71.6 °F 62% 29.88 in 10.0 mi ENE 5.8 mph - N/A   Partly Cloudy
7:00 PM 84.2 °F 88.4 °F 69.8 °F 62% 29.88 in 12.0 mi East 5.8 mph - N/A   Partly Cloudy
8:00 PM 81 °F - 70 °F 62% 29.90 in 10 mi SE 4.6 mph - -   Scattered Clouds
8:00 PM 80.6 °F 83.9 °F 69.8 °F 70% 29.90 in 10.0 mi SE 4.6 mph - N/A   Partly Cloudy
9:00 PM 77.0 °F - 71.6 °F 83% 29.92 in 10.0 mi ESE 3.5 mph - N/A   Partly Cloudy
10:00 PM 73.4 °F - 71.6 °F 94% 29.92 in 10.0 mi SE 3.5 mph - N/A   Partly Cloudy
11:00 PM 75.2 °F - 71.6 °F 89% 29.92 in 8.0 mi Calm Calm - N/A   Partly Cloudy